Location: Mentone
(34.5413°N, 85.5351°W)
Time: 07:21:38
(UTC-05:00)

Centaur AC-72 - Visible Passes

Search period start: 02 August 2015 00:00
Search period end: 12 August 2015 00:00
Orbit: 1076 x 35280 km, 18.9° (Epoch: 01 August)

Date Brightness Start Highest point End Pass type
(mag) Time Alt. Az. Time Alt. Az. Time Alt. Az.
02 Aug 6.5 03:46:36 17° SSW 04:56:34 25° S 13:31:58 10° ESE visible
03 Aug 7.5 01:03:36 15° SSE 01:03:36 15° SSE 10:31:12 10° ESE visible
03 Aug 4.7 21:45:10 10° SW 21:48:03 15° S 21:48:03 15° S visible
03 Aug 4.7 21:45:10 10° SW 21:48:07 15° S 21:48:07 15° S visible
06 Aug 6.6 03:33:09 17° SSW 04:37:27 24° S 13:16:14 10° ESE visible
07 Aug 7.6 00:50:09 13° SSE 00:50:09 13° SSE 10:15:26 10° ESE visible
07 Aug 4.7 21:29:33 10° SW 21:32:48 14° S 21:33:03 14° S visible
07 Aug 4.7 21:29:34 10° SW 21:32:48 14° S 21:33:07 14° S visible
10 Aug 6.7 03:19:41 18° SSW 04:18:51 24° S 13:00:30 10° ESE visible
11 Aug 7.7 00:36:41 11° SE 00:36:41 11° SE 09:59:39 10° ESE visible
11 Aug 4.8 21:14:00 10° SSW 21:16:56 13° S 21:18:05 13° S visible
